| time (UTC) | temp F | wind direction | speed MPH | gust MPH | rain 1hr in | rain 24hr in | rain mn in | humidity % | barometer mb |
| 20260901004612 | 85 | 215 | 4.0 | 6.0 | 0.00 | 0.00 | 0.00 | 72 | 1016.7 |
| 20260901003124 | 85 | 226 | 4.0 | 6.0 | 0.00 | 0.00 | 0.00 | 71 | 1016.6 |
| 20260901001614 | 86 | 219 | 4.0 | 8.0 | 0.00 | 0.00 | 0.00 | 70 | 1016.5 |
| 20260901000124 | 86 | 192 | 5.0 | 9.0 | 0.00 | 0.00 | 0.00 | 68 | 1016.5 |
| 20260831234624 | 87 | 215 | 6.0 | 10.0 | 0.00 | 0.00 | 0.00 | 67 | 1016.5 |
| 20260831233105 | 87 | 197 | 4.0 | 8.0 | 0.00 | 0.00 | 0.00 | 67 | 1016.5 |
| 20260831231614 | 88 | 208 | 5.0 | 8.0 | 0.00 | 0.00 | 0.00 | 65 | 1016.6 |
| 20260831230104 | 88 | 217 | 6.0 | 9.0 | 0.00 | 0.00 | 0.00 | 64 | 1016.7 |
| 20260831224606 | 89 | 205 | 4.0 | 11.0 | 0.00 | 0.00 | 0.00 | 64 | 1016.8 |
| 20260831223105 | 89 | 213 | 7.0 | 11.0 | 0.00 | 0.00 | 0.00 | 63 | 1016.9 |
| 20260831221607 | 90 | 197 | 7.0 | 12.0 | 0.00 | 0.00 | 0.00 | 62 | 1017.0 |
| 20260831220118 | 90 | 216 | 3.0 | 10.0 | 0.00 | 0.00 | 0.00 | 62 | 1017.1 |
| 20260831214603 | 90 | 219 | 5.0 | 11.0 | 0.00 | 0.00 | 0.00 | 62 | 1017.2 |
| 20260831213102 | 90 | 170 | 6.0 | 14.0 | 0.00 | 0.00 | 0.00 | 64 | 1017.3 |
| 20260831211611 | 90 | 198 | 7.0 | 13.0 | 0.00 | 0.00 | 0.00 | 63 | 1017.3 |
| 20260831210107 | 90 | 215 | 5.0 | 11.0 | 0.00 | 0.00 | 0.00 | 63 | 1017.3 |
| 20260831204608 | 90 | 220 | 6.0 | 13.0 | 0.00 | 0.00 | 0.00 | 64 | 1017.5 |
| 20260831203109 | 89 | 155 | 4.0 | 11.0 | 0.00 | 0.00 | 0.00 | 65 | 1017.8 |
| 20260831201609 | 90 | 236 | 6.0 | 13.0 | 0.00 | 0.00 | 0.00 | 63 | 1018.0 |
| 20260831200108 | 89 | 182 | 4.0 | 10.0 | 0.00 | 0.00 | 0.00 | 64 | 1018.1 |
| 20260831194635 | 89 | 235 | 5.0 | 12.0 | 0.00 | 0.00 | 0.00 | 66 | 1018.3 |
| 20260831193106 | 89 | 232 | 6.0 | 16.0 | 0.00 | 0.00 | 0.00 | 65 | 1018.4 |
| 20260831191605 | 89 | 188 | 4.0 | 15.0 | 0.00 | 0.00 | 0.00 | 66 | 1018.5 |
| 20260831190119 | 89 | 180 | 5.0 | 13.0 | 0.00 | 0.00 | 0.00 | 66 | 1018.6 |
| 20260831184628 | 88 | 251 | 9.0 | 13.0 | 0.00 | 0.00 | 0.00 | 66 | 1018.8 |
| 20260831183109 | 89 | 225 | 8.0 | 15.0 | 0.00 | 0.00 | 0.00 | 65 | 1018.9 |
| 20260831181603 | 88 | 174 | 6.0 | 11.0 | 0.00 | 0.00 | 0.00 | 68 | 1019.0 |
| 20260831180108 | 88 | 261 | 8.0 | 16.0 | 0.00 | 0.00 | 0.00 | 66 | 1019.2 |
| 20260831174609 | 88 | 243 | 9.0 | 14.0 | 0.00 | 0.00 | 0.00 | 68 | 1019.3 |
| 20260831173108 | 87 | 221 | 9.0 | 16.0 | 0.00 | 0.00 | 0.00 | 70 | 1019.5 |
| 20260831171608 | 86 | 256 | 6.0 | 13.0 | 0.00 | 0.00 | 0.00 | 70 | 1019.4 |
| 20260831164600 | 86 | 290 | 6.0 | 11.0 | 0.00 | 0.00 | 0.00 | 72 | 1019.5 |
| 20260831163109 | 86 | 246 | 5.0 | 13.0 | 0.00 | 0.00 | 0.00 | 72 | 1019.5 |
| 20260831161606 | 86 | 277 | 8.0 | 13.0 | 0.00 | 0.00 | 0.00 | 70 | 1019.6 |
| 20260831160100 | 85 | 241 | 2.0 | 8.0 | 0.00 | 0.00 | 0.00 | 75 | 1019.6 |
| 20260831154630 | 84 | 217 | 2.0 | 6.0 | 0.00 | 0.00 | 0.00 | 78 | 1019.7 |
| 20260831153106 | 83 | 0 | 3.0 | 8.0 | 0.00 | 0.00 | 0.00 | 79 | 1019.6 |
| 20260831151608 | 82 | 232 | 3.0 | 9.0 | 0.00 | 0.00 | 0.00 | 79 | 1019.6 |
| 20260831150104 | 81 | 244 | 6.0 | 10.0 | 0.00 | 0.00 | 0.00 | 79 | 1019.7 |
| 20260831144633 | 80 | 224 | 5.0 | 9.0 | 0.00 | 0.00 | 0.00 | 81 | 1019.6 |
| 20260831143113 | 79 | 225 | 5.0 | 10.0 | 0.00 | 0.00 | 0.00 | 82 | 1019.6 |
| 20260831141604 | 79 | 225 | 1.0 | 10.0 | 0.00 | 0.00 | 0.00 | 83 | 1019.6 |
| 20260831140104 | 78 | 234 | 3.0 | 9.0 | 0.00 | 0.00 | 0.00 | 83 | 1019.5 |
| 20260831134603 | 76 | 225 | 1.0 | 5.0 | 0.00 | 0.00 | 0.00 | 86 | 1019.5 |
| 20260831133104 | 76 | 219 | 3.0 | 6.0 | 0.00 | 0.00 | 0.00 | 86 | 1019.4 |
| 20260831131607 | 75 | 215 | 3.0 | 8.0 | 0.00 | 0.00 | 0.00 | 88 | 1019.3 |
| 20260831130116 | 73 | 0 | 3.0 | 5.0 | 0.00 | 0.00 | 0.00 | 90 | 1019.3 |
| 20260831124605 | 73 | 0 | 0.0 | 5.0 | 0.00 | 0.00 | 0.00 | 91 | 1019.3 |
| 20260831123108 | 72 | 217 | 2.0 | 7.0 | 0.00 | 0.00 | 0.00 | 91 | 1019.1 |
| 20260831121614 | 72 | 200 | 4.0 | 6.0 | 0.00 | 0.00 | 0.00 | 90 | 1019.1 |
| 20260831120113 | 72 | 200 | 3.0 | 5.0 | 0.00 | 0.00 | 0.00 | 90 | 1019.1 |
| 20260831114605 | 73 | 195 | 3.0 | 5.0 | 0.00 | 0.00 | 0.00 | 89 | 1018.9 |
| 20260831113107 | 73 | 194 | 3.0 | 4.0 | 0.00 | 0.00 | 0.00 | 89 | 1018.7 |
| 20260831111615 | 73 | 192 | 3.0 | 4.0 | 0.00 | 0.00 | 0.00 | 88 | 1018.7 |
| 20260831110148 | 73 | 175 | 2.0 | 4.0 | 0.00 | 0.00 | 0.00 | 88 | 1018.5 |
| 20260831104602 | 73 | 175 | 1.0 | 4.0 | 0.00 | 0.00 | 0.00 | 88 | 1018.3 |
| 20260831103109 | 73 | 171 | 1.0 | 4.0 | 0.00 | 0.00 | 0.00 | 88 | 1018.3 |
| 20260831101610 | 73 | 166 | 0.0 | 3.0 | 0.00 | 0.00 | 0.00 | 88 | 1018.2 |
| 20260831100108 | 73 | 166 | 0.0 | 4.0 | 0.00 | 0.00 | 0.00 | 88 | 1018.0 |
| 20260831094605 | 74 | 166 | 4.0 | 8.0 | 0.00 | 0.00 | 0.00 | 87 | 1017.7 |
| 20260831093108 | 74 | 189 | 2.0 | 5.0 | 0.00 | 0.00 | 0.00 | 86 | 1017.8 |
| 20260831091607 | 73 | 216 | 2.0 | 4.0 | 0.00 | 0.00 | 0.00 | 87 | 1017.8 |
| 20260831090106 | 73 | 202 | 2.0 | 5.0 | 0.00 | 0.00 | 0.00 | 88 | 1017.7 |
| 20260831084608 | 73 | 165 | 4.0 | 5.0 | 0.00 | 0.00 | 0.00 | 88 | 1017.4 |
| 20260831083112 | 74 | 153 | 2.0 | 5.0 | 0.00 | 0.00 | 0.00 | 88 | 1017.4 |
| 20260831081635 | 73 | 149 | 2.0 | 5.0 | 0.00 | 0.00 | 0.00 | 86 | 1017.3 |
| 20260831080120 | 73 | 141 | 3.0 | 8.0 | 0.00 | 0.00 | 0.00 | 86 | 1017.0 |
| 20260831074609 | 74 | 145 | 5.0 | 7.0 | 0.00 | 0.00 | 0.00 | 86 | 1017.1 |
| 20260831073205 | 75 | 150 | 5.0 | 7.0 | 0.00 | 0.00 | 0.00 | 84 | 1017.4 |
| 20260831071624 | 75 | 150 | 2.0 | 5.0 | 0.00 | 0.00 | 0.00 | 84 | 1017.7 |
| 20260831070108 | 74 | 150 | 4.0 | 6.0 | 0.00 | 0.00 | 0.00 | 85 | 1017.8 |
| 20260831064610 | 75 | 154 | 3.0 | 5.0 | 0.00 | 0.00 | 0.00 | 84 | 1018.0 |
| 20260831063118 | 76 | 154 | 2.0 | 5.0 | 0.00 | 0.00 | 0.00 | 82 | 1018.0 |
| 20260831061603 | 77 | 154 | 2.0 | 3.0 | 0.00 | 0.00 | 0.00 | 81 | 1018.0 |
| 20260831060116 | 77 | 154 | 1.0 | 2.0 | 0.00 | 0.00 | 0.00 | 81 | 1018.0 |
| 20260831054614 | 76 | 154 | 2.0 | 5.0 | 0.00 | 0.00 | 0.00 | 82 | 1018.1 |
| 20260831053125 | 76 | 140 | 2.0 | 4.0 | 0.00 | 0.00 | 0.00 | 83 | 1017.9 |
| 20260831051603 | 76 | 140 | 3.0 | 4.0 | 0.00 | 0.00 | 0.00 | 82 | 1017.9 |
| 20260831050140 | 76 | 140 | 3.0 | 5.0 | 0.00 | 0.00 | 0.00 | 82 | 1018.0 |
| 20260831044606 | 78 | 141 | 4.0 | 5.0 | 0.00 | 0.00 | 0.00 | 78 | 1017.9 |
| 20260831043104 | 78 | 0 | 0.0 | 1.0 | 0.00 | 0.00 | 0.00 | 78 | 1018.0 |
| 20260831041608 | 79 | 140 | 2.0 | 4.0 | 0.00 | 0.00 | 0.00 | 77 | 1018.0 |
| 20260831034607 | 79 | 136 | 3.0 | 5.0 | 0.00 | 0.00 | 0.00 | 75 | 1018.1 |
| 20260831033103 | 79 | 134 | 3.0 | 5.0 | 0.00 | 0.00 | 0.00 | 75 | 1018.0 |
| 20260831031606 | 80 | 134 | 4.0 | 7.0 | 0.00 | 0.00 | 0.00 | 75 | 1018.0 |
| 20260831030109 | 80 | 132 | 4.0 | 5.0 | 0.00 | 0.00 | 0.00 | 74 | 1018.1 |
| 20260831024607 | 81 | 126 | 2.0 | 6.0 | 0.00 | 0.00 | 0.00 | 71 | 1018.2 |
| 20260831023104 | 82 | 124 | 4.0 | 6.0 | 0.00 | 0.00 | 0.00 | 70 | 1018.1 |
| 20260831021609 | 82 | 124 | 3.0 | 6.0 | 0.00 | 0.00 | 0.00 | 70 | 1018.0 |
| 20260831020108 | 81 | 115 | 5.0 | 7.0 | 0.00 | 0.00 | 0.00 | 72 | 1017.8 |
| 20260831014606 | 82 | 126 | 4.0 | 5.0 | 0.00 | 0.00 | 0.00 | 68 | 1017.7 |
| 20260831013104 | 83 | 147 | 3.0 | 4.0 | 0.00 | 0.00 | 0.00 | 65 | 1017.6 |
| 20260831011608 | 83 | 147 | 2.0 | 4.0 | 0.00 | 0.00 | 0.00 | 65 | 1017.8 |
| 20260831010104 | 84 | 147 | 2.0 | 5.0 | 0.00 | 0.00 | 0.00 | 65 | 1017.7 |